Flag for Canada Weather past 2 weeks in Eureka, Nunavut Territory, Canada

Now
39 °F

Overcast.


Feels Like: 36 °F
Forecast: 37 / 45 °F
Wind: 5 mph from West

Location: Eureka

Current Time: Aug 20, 2014 at 2:30:40 PM

Latest Report: Aug 20, 2014 at 2:00 PM


Visibility: 15 mi

Pressure: 29.76 "Hg

Humidity: 70%

Dew point: 30 °F

Location of EurekaLocation

Historic Weather in Eureka — Graph

°F

Eureka temperature yesterday

Maximum temperature yesterday: 46 °F (at 6:00 PM)
Minimum temperature yesterday: 36 °F (at 8:00 AM)
Average temperature yesterday: 39 °F

Past Weeks' High & Low Weather Summary

 TemperatureHumidityPressure
High57 °F (Aug 9, 2:00 PM)87% (Aug 10, 6:00 PM)30.13 "Hg (Aug 10, 6:00 PM)
Low32 °F (Aug 16, 1:00 AM)35% (Aug 16, 3:00 PM)29.49 "Hg (Aug 10, 4:00 AM)
Average40 °F69%29.87 "Hg
* Reported Aug 5 1:00 PM — Aug 20 1:00 PM, Eureka, Weather by CustomWeather, © 2014

Note: Actual official high and low records may vary slightly from our data, if they occured in-between our weather recording intervals... More about our weather records

Advertising

Eureka weather history for previous 24 hours

 ConditionsComfort  
Time TempWeatherWind HumidityBarometerVisibility
1:00 PM
Aug 20
39 °FBroken clouds.8 mph70%29.76 "Hg15 mi
12:00 PM39 °FScattered clouds.3 mph70%29.77 "Hg15 mi
11:00 AM39 °FPartly sunny.5 mph65%29.77 "Hg15 mi
10:00 AM39 °FPartly sunny.6 mph65%29.78 "Hg15 mi
9:00 AM37 °FPartly sunny.7 mph70%29.78 "Hg15 mi
8:00 AM37 °FMostly cloudy.3 mph70%29.78 "Hg15 mi
7:00 AM36 °FLight rain. Mostly cloudy.7 mph75%29.78 "Hg15 mi
6:00 AM37 °FPartly sunny.3 mph70%29.78 "Hg15 mi
5:00 AM36 °FMostly cloudy.7 mph75%29.78 "Hg15 mi
4:00 AM39 °FOvercast.6 mph65%29.78 "Hg15 mi
3:00 AM39 °FPartly sunny.2 mph65%29.79 "Hg15 mi
1:00 AM36 °FOvercast.No wind75%29.80 "Hg15 mi
10:00 PM
Aug 19
37 °FMostly cloudy.5 mph70%29.82 "Hg15 mi
9:00 PM45 °FOvercast.7 mph53%29.84 "Hg15 mi
8:00 PM39 °FOvercast.12 mph65%29.85 "Hg15 mi
7:00 PM46 °FOvercast.17 mph46%29.86 "Hg15 mi
6:00 PM46 °FOvercast.21 mph50%29.87 "Hg15 mi
5:00 PM37 °FOvercast.17 mph70%29.89 "Hg15 mi
4:00 PM36 °FOvercast.14 mph75%29.92 "Hg15 mi
3:00 PM36 °FOvercast.15 mph75%29.94 "Hg15 mi
2:00 PM36 °FOvercast.12 mph75%29.96 "Hg15 mi
Weather by CustomWeather, © 2014

See weather overviewHow to use our weather pages